Total_Precipitation_Accumulation
2.98 2.99 2.95 2.95 2.85 2.98 3.11 3.19 3.05 2.93 2.86 2.70 2.50 2.51 2.69 2.76 2.85 2.87 2.95 3.03 2.81 2.97 3.49 3.89 3.97 4.00 3.97 3.93 3.86 3.80 3.68 3.73 3.55 3.18 2.72 2.43 2.28 2.11 2.07 2.08 2.15 2.16 2.14
3.37 3.36 3.42 3.37 3.12 3.15 3.29 3.43 3.31 3.19 2.95 2.82 2.65 2.65 2.70 2.64 2.75 2.94 3.00 3.07 2.93 2.86 3.30 3.84 4.21 4.40 4.40 4.39 4.24 3.98 3.76 3.65 3.60 3.47 3.17 2.77 2.53 2.35 2.24 2.13 2.09 2.06 2.00
3.72 3.75 3.88 3.85 3.52 3.47 3.58 3.70 3.68 3.56 3.18 2.90 2.85 2.92 2.91 2.90 2.76 2.76 2.99 3.08 2.96 2.99 3.22 3.42 3.74 4.04 4.26 4.37 4.41 4.24 4.01 3.73 3.56 3.48 3.46 3.21 2.87 2.59 2.40 2.28 2.22 2.12 1.99
3.78 3.97 3.88 3.71 3.67 3.78 4.03 4.20 4.10 4.02 3.81 3.59 3.42 3.14 2.92 2.88 2.79 2.90 2.89 2.94 3.23 3.14 3.15 3.03 3.21 3.57 3.87 4.20 4.45 4.50 4.37 4.08 3.76 3.53 3.48 3.36 3.07 2.72 2.47 2.31 2.27 2.22 2.10
3.87 4.15 4.18 4.15 4.05 4.10 4.23 4.05 4.20 4.11 4.26 4.09 3.61 3.33 3.07 2.92 2.87 2.86 2.92 2.89 3.02 3.16 3.14 2.95 3.00 3.28 3.53 3.91 4.16 4.42 4.55 4.42 4.15 3.79 3.62 3.53 3.30 3.00 2.71 2.50 2.36 2.29 2.19
4.23 4.42 4.36 4.42 4.45 4.54 4.44 4.39 4.44 4.23 4.14 4.10 3.71 3.49 3.24 2.94 2.89 2.81 2.69 2.75 2.82 2.71 2.79 2.81 2.91 2.85 3.13 3.46 3.75 4.16 4.61 4.73 4.64 4.31 4.04 3.92 3.63 3.23 2.90 2.70 2.56 2.46 2.37
4.81 4.90 4.92 4.89 4.73 4.64 4.53 4.44 4.44 4.36 4.07 3.93 3.97 3.61 3.11 2.68 2.44 2.34 2.37 2.48 2.47 2.41 2.52 2.75 2.92 2.85 2.76 2.95 3.27 3.80 4.51 4.85 4.92 4.73 4.42 4.22 3.86 3.41 3.10 2.89 2.70 2.54 2.42
5.55 5.41 5.40 5.07 4.75 4.62 4.49 4.38 4.32 4.18 3.84 3.73 3.80 3.82 3.29 2.80 2.26 1.95 2.05 2.08 2.16 2.31 2.37 2.30 2.47 2.56 2.51 2.60 2.57 2.95 3.40 3.90 4.37 4.63 4.55 4.28 3.98 3.61 3.30 3.09 3.00 2.90 2.75
5.63 5.42 5.20 5.00 4.78 4.60 4.44 4.42 4.33 4.20 3.91 3.71 3.69 3.93 3.69 3.16 2.55 2.18 1.96 1.99 2.11 2.25 2.22 2.16 2.17 2.17 2.22 2.37 2.39 2.54 2.77 3.03 3.52 3.96 4.19 4.11 3.85 3.57 3.39 3.30 3.25 3.31 3.28
5.24 4.87 4.70 4.74 4.62 4.41 4.22 3.93 3.81 3.82 3.77 3.60 3.54 3.41 3.31 3.15 2.93 2.58 2.27 2.22 2.27 2.26 2.18 2.14 2.19 2.28 2.29 2.41 2.43 2.30 2.29 2.38 2.71 3.14 3.58 3.74 3.65 3.46 3.36 3.43 3.50 3.64 3.69
4.60 4.35 4.26 4.37 4.29 4.04 3.86 3.60 3.42 3.26 3.26 3.32 3.34 3.26 3.10 2.95 2.72 2.57 2.39 2.28 2.25 2.19 2.11 2.08 2.13 2.24 2.31 2.28 2.25 2.14 2.14 2.14 2.29 2.51 2.84 3.24 3.45 3.52 3.51 3.56 3.63 3.68 3.76
4.05 3.73 3.51 3.44 3.36 3.20 3.11 3.08 3.05 3.01 3.00 3.05 3.07 3.03 2.92 2.82 2.73 2.68 2.51 2.27 2.23 2.26 2.16 2.02 1.93 1.95 2.00 2.10 2.07 2.21 2.08 2.08 2.14 2.21 2.24 2.43 2.79 3.07 3.28 3.42 3.46 3.60 3.73
3.40 3.03 2.82 2.72 2.68 2.64 2.60 2.65 2.71 2.74 2.71 2.77 2.73 2.72 2.67 2.52 2.48 2.62 2.70 2.52 2.35 2.21 2.18 2.07 1.93 1.97 1.88 1.96 2.16 2.23 2.07 1.98 2.02 2.01 1.92 1.93 2.16 2.48 2.57 2.77 3.02 3.22 3.47
2.73 2.61 2.51 2.35 2.30 2.33 2.34 2.48 2.46 2.36 2.36 2.39 2.32 2.40 2.42 2.35 2.37 2.48 2.59 2.77 2.73 2.46 2.25 2.12 2.01 1.99 2.00 2.00 2.15 2.17 1.93 1.81 1.77 1.83 1.83 1.79 1.80 1.94 2.08 2.15 2.30 2.47 2.71
2.24 2.22 2.18 2.11 2.01 1.95 1.94 1.98 1.96 1.97 2.03 2.01 2.00 2.02 2.03 2.10 2.22 2.28 2.38 2.64 2.87 2.76 2.46 2.23 2.17 2.09 2.02 2.08 2.25 1.98 1.86 1.82 1.65 1.57 1.55 1.52 1.56 1.65 1.75 1.74 1.74 1.85 1.95
1.91 1.90 1.84 1.77 1.78 1.78 1.71 1.65 1.61 1.64 1.71 1.77 1.83 1.82 1.79 1.82 1.94 1.96 2.04 2.21 2.51 2.72 2.53 2.11 2.05 2.00 2.02 1.91 2.14 1.90 1.87 1.87 1.58 1.39 1.32 1.30 1.32 1.39 1.44 1.47 1.49 1.53 1.62
1.76 1.71 1.69 1.66 1.55 1.50 1.51 1.55 1.52 1.55 1.66 1.69 1.65 1.67 1.68 1.76 1.87 1.83 1.87 1.99 2.16 2.39 2.55 2.29 2.12 2.05 2.03 2.05 2.06 1.90 1.77 1.67 1.52 1.42 1.24 1.16 1.16 1.23 1.23 1.24 1.32 1.38 1.42
1.67 1.67 1.64 1.57 1.39 1.32 1.41 1.48 1.45 1.44 1.57 1.57 1.53 1.59 1.59 1.64 1.73 1.77 1.86 1.96 2.08 2.27 2.40 2.45 2.29 2.14 2.06 2.03 2.06 1.99 1.72 1.54 1.47 1.48 1.28 1.15 1.06 1.04 1.12 1.12 1.14 1.24 1.34
1.53 1.53 1.44 1.41 1.34 1.25 1.28 1.29 1.31 1.30 1.34 1.41 1.43 1.49 1.53 1.61 1.62 1.67 1.74 1.81 1.94 2.03 2.23 2.33 2.22 2.13 2.06 1.96 2.11 1.95 1.81 1.90 1.54 1.41 1.29 1.18 1.09 1.05 1.26 1.30 1.10 1.10 1.17
1.37 1.39 1.32 1.26 1.25 1.20 1.09 1.04 1.09 1.16 1.25 1.25 1.23 1.34 1.42 1.50 1.52 1.61 1.62 1.70 1.80 1.99 2.17 2.24 2.09 1.97 1.92 1.95 2.08 2.07 1.97 1.88 1.71 1.37 1.34 1.27 1.18 1.18 1.48 1.99 1.50 1.20 1.18
1.14 1.16 1.16 1.13 1.14 1.06 0.94 0.96 1.01 1.01 1.11 1.15 1.14 1.19 1.24 1.29 1.31 1.33 1.30 1.46 1.66 1.85 1.97 2.06 1.99 1.94 1.89 2.02 2.02 1.95 1.90 1.88 1.73 1.51 1.49 1.37 1.48 1.72 2.20 2.80 2.32 1.71 1.48
1.22 1.18 1.16 1.13 1.06 0.91 0.91 0.87 0.87 0.91 1.00 1.10 1.19 1.19 1.09 1.08 1.05 0.98 1.02 1.14 1.36 1.62 1.88 2.00 1.94 1.93 1.91 1.99 2.08 2.05 2.02 2.07 2.01 1.67 1.60 1.52 1.71 2.48 3.09 3.36 2.89 2.06 1.75
1.40 1.30 1.19 1.13 1.07 0.97 0.87 0.73 0.70 0.76 0.95 1.09 1.19 1.18 0.98 0.90 1.01 1.01 1.04 1.05 1.13 1.28 1.56 1.86 1.95 1.85 1.90 2.02 2.20 2.24 2.18 2.17 2.11 1.85 1.87 1.81 1.96 2.75 2.97 3.09 2.93 2.14 1.82
1.39 1.33 1.21 1.13 1.08 0.89 0.77 0.66 0.68 0.72 0.85 0.90 0.93 1.02 1.10 1.10 1.02 1.05 1.06 1.16 1.23 1.33 1.41 1.55 1.77 1.74 1.72 1.89 2.11 2.13 2.11 2.07 2.00 1.87 1.89 1.99 2.12 2.60 2.54 2.63 2.67 2.14 1.84
1.32 1.21 1.12 1.09 1.04 0.89 0.81 0.76 0.76 0.78 0.84 0.79 0.77 0.84 0.90 0.94 0.93 0.99 1.09 1.29 1.36 1.47 1.43 1.59 1.61 1.53 1.54 1.61 1.63 1.77 2.06 2.25 2.15 1.86 1.74 1.86 2.01 2.30 2.35 2.39 2.25 2.05 1.86
1.26 1.07 1.01 1.04 0.99 0.93 0.82 0.69 0.66 0.67 0.79 0.81 0.84 0.90 0.85 0.75 0.79 0.90 1.11 1.37 1.55 1.60 1.63 1.74 1.71 1.68 1.58 1.55 1.50 1.59 1.97 2.26 2.25 2.02 1.71 1.74 1.86 2.06 2.30 2.23 2.02 1.86 1.88